ELECTRON KICK STAGE R/B

Last updated on Fri Sep 05 2025 00:02:05 GMT+0000 (Coordinated Universal Time)

1 65117U 25169B 25247.14710697 .00007575 00000+0 65342-3 0 9994 2 65117 42.0113 146.9309 0005672 120.3432 239.7954 14.97522629 4482

Satellite not in orbit